Regional Weather Roundup
Issued by NWS

Home | Current Version | Previous Version | Text Only | Print | Product List | Glossary Off
Versions: 1 2 3 4 5 6 7 8 9 10 11 12 13 14 15 16 17 18 19 20 21 22 23 24 25 26 27 28 29 30 31 32 33 34 35 36 37 38 39 40 41 42 43 44 45 46 47 48 49 50

000
ASUS43 KLOT 260800
RWRIL

ILLINOIS REGIONAL WEATHER ROUNDUP
NATIONAL WEATHER SERVICE CHICAGO/ROMEOVILLE IL
200 AM CST WED NOV 26 2014

NOTE: "FAIR" INDICATES FEW OR NO CLOUDS BELOW 12,000 FEET WITH NO
SIGNIFICANT WEATHER AND/OR OBSTRUCTIONS TO VISIBILITY.

* THESE STATIONS ARE NOT UNDER NWS QUALITY CONTROL. THEY ALSO MAY NOT
  REPORT WEATHER SUCH AS PRECIPITATION OR FOG.

ILZ001-002-007-009-015-016-024-260900-
NORTHWEST ILLINOIS

CITY           SKY/WX    TMP DP  RH WIND       PRES   REMARKS
MOLINE         CLEAR     12   9  87 E6        30.11F WCI   3
STERLING*      CLEAR     10   7  85 E3        30.13S
$$

ILZ003-004-008-010-011-017-018-260900-
NORTH CENTRAL ILLINOIS

CITY           SKY/WX    TMP DP  RH WIND       PRES   REMARKS
ROCKFORD       PTCLDY    10   7  87 CALM      30.16F FOG
$$

ILZ005-006-012>014-019>023-260900-
NORTHEAST ILLINOIS

CITY           SKY/WX    TMP DP  RH WIND       PRES   REMARKS
CHICAGO-OHARE  MOCLDY    20  15  81 CALM      30.17S
CHICAGO-MIDWAY MOCLDY    24  18  77 CALM      30.18S
AURORA         PTCLDY    11   5  77 NE3       30.17S HAZE
WAUKEGAN       PTCLDY    12   8  84 W3        30.18R
DUPAGE AIRPORT CLEAR     13  10  88 N3        30.17R FOG
WHEELING       CLOUDY    21  16  81 SW5       30.21R WCI  15
NORTHERLY ISL    N/A     23  18  81 W5          N/A  WCI  17
$$

LMZ740>746-260900-
SOUTHERN LAKE MICHIGAN

STATION/POSITION SKY/WX   TEMP    WIND        PRES    VSBY  WAVE
                          AIR SEA DIR/SP/G                  HT/PER
                          (F)     (DEG/KT/KT) (MB)    (MI)  (FT/S)
SOUTHERN BUOY              29 42  220/ 12/ 17 1022.4F         2/ 3
WAUKEGAN HARBOR            20     270/  4/  7   N/A
HARRISON CRIB              22     200/ 10/ 13   N/A
BURNHAM HARBOR             23     190/  4/  9   N/A
CALUMET HARBOR             23     150/  5/  7 1020.9R
MICHIGAN CITY              23     160/  5/  7   N/A
$$

ILZ025>027-034>036-040-047-049-050-058-095>099-260900-
WEST-CENTRAL ILLINOIS

CITY           SKY/WX    TMP DP  RH WIND       PRES   REMARKS
QUINCY         PTCLDY    26  20  77 SE6       30.07F WCI  19
$$

ILZ028>032-037-038-041>044-048-051>054-059>061-260900-
CENTRAL ILLINOIS

CITY           SKY/WX    TMP DP  RH WIND       PRES   REMARKS
DECATUR        CLEAR     22  20  92 CALM      30.14F
PEORIA         FAIR      24  19  81 SE3       30.13F
SPRINGFIELD    CLEAR     24  22  91 SE7       30.12F WCI  16
TAYLORVILLE    NOT AVBL
$$

ILZ033-039-045-046-055>057-062-063-260900-
EAST-CENTRAL ILLINOIS

CITY           SKY/WX    TMP DP  RH WIND       PRES   REMARKS
CHAMPAIGN      CLEAR     20  17  88 E6        30.15F WCI  12
MATTOON        CLEAR     24  21  88 E3        30.14S
$$

ILZ079-100>102-260900-
SOUTHWEST ILLINOIS

CITY           SKY/WX    TMP DP  RH WIND       PRES   REMARKS
CAHOKIA*       CLEAR     28  24  85 S3        30.13F
$$

ILZ064>066-069>071-074>076-080>082-084>086-088>090-092>094-260900-
SOUTH-CENTRAL ILLINOIS

CITY           SKY/WX    TMP DP  RH WIND       PRES   REMARKS
CARBONDALE     CLEAR     20  18  92 CALM      30.15F FOG
MT. VERNON     CLEAR     21  16  79 CALM      30.15F
$$

ILZ067-068-072-073-078-083-087-091-260900-
SOUTHEAST ILLINOIS

CITY           SKY/WX    TMP DP  RH WIND       PRES   REMARKS
LAWRENCEVILLE  CLEAR     26  24  92 E5        30.18S WCI  20
$$

ABBREVIATIONS USED IN REMARKS
   TC - TEMPERATURE IN CELSIUS
  WCI - WIND CHILL INDEX
   HX - HEAT INDEX
  VSB - VISIBILITY
$$




USA.gov is the U.S. government's official web portal to all federal, state and local government web resources and services.